Starlink 32902

operational
NORAD ID: 62898 Int'l Des: 2025-024 Owner: SPXS Country: US Constellation: starlink
LEOCIRCULAR

关于 Starlink 32902

正在加载描述...

实时位置

正在加载3D地球...

即将过境

高度历史

Altitude vs Time

uPlot chart will show altitude changes over time

两行轨道根数

1 62898U 25024V 25351.58464728 .00022409 00000-0 82037-3 0 9996
2 62898 43.0033 68.6484 0003524 286.8970 73.1496 15.27616627 49712
Epoch: Dec 17, 2025 • Age: 7 hours

当前状态

高度 488.1 km
速度 7.63 km/s
星下点 42.51°N, 108.26°E
发射日期 Feb 4, 2025
运行时间 0.8 years
类型 internet

技术详情

分类 Payload
质量 730.00 kg
干质量 700.00 kg
总质量 730.00 kg
长度 0.30 m
直径 4.10 m
跨度 29.00 m
形状 Box + pan
制造商 SPXS
平台类型 Starlink V2M
阶段状态 In Orbit
所有者/国家 SPXS/US

大型星座

Loading constellations...